Terminal Aerodrome Forecast
Issued by NWS Melbourne, FL

Home | Current Version | Previous Version | Text Only | Print | Product List | Glossary On
Versions: 1 2 3 4 5 6 7 8 9 10 11 12 13 14 15 16 17 18 19
000
FTUS42 KMLB 021531 AAB
TAFMLB
TAF AMD
KMLB 021531Z 0216/0312 23005KT P6SM BKN030
      TEMPO 0216/0218 SCT030
     FM021800 11010KT P6SM VCTS SCT030CB BKN100
     FM022200 12007KT P6SM SCT100 BKN250
     FM030000 17004KT P6SM BKN120=

USA.gov is the U.S. government's official web portal to all federal, state and local government web resources and services.